Regional Weather Roundup
Issued by NWS Grand Forks, ND

Home | Current Version | Previous Version | Text Only | Print | Product List | Glossary Off
Versions: 1 2 3 4 5 6 7 8 9 10 11 12 13 14 15 16 17 18 19 20 21 22 23 24 25 26 27 28 29 30 31 32 33 34 35 36 37 38 39 40 41 42 43 44 45 46 47 48 49 50

000
ASUS43 KFGF 241731
RWRFGF
PRAIRIE TO PINES  WEATHER ROUNDUP
NATIONAL WEATHER SERVICE EASTERN NORTH DAKOTA/GRAND FORKS ND
1200 PM CDT FRI OCT 24 2014

 **SATELLITE DATA USED TO AUGMENT SKY COVER AT AUTOMATED STATIONS**
 *****  WEATHER ACROSS EASTERN NORTH DAKOTA  *****

CITY           SKY/WX    TMP DP  RH WIND       PRES   REMARKS
GRAND FORKS    MOSUNNY   68  41  37 W10       29.75F
GRAND FRKS AFB SUNNY     70  42  36 W13       29.75F
GRAND FRKS NWS   N/A     68 N/A N/A W14         N/A
DEVILS LAKE    MOSUNNY   63  43  48 W18       29.79S
FARGO          MOSUNNY   60  41  49 S9        29.81F
WAHPETON ARPT  MOSUNNY   63  41  45 W9        29.84F
$$

 ***** WEATHER ACROSS CENTRAL AND WESTERN NORTH DAKOTA  *****

CITY           SKY/WX    TMP DP  RH WIND       PRES   REMARKS
BISMARCK       MOSUNNY   64  39  39 NW7       29.91R
MINOT          MOSUNNY   64  34  32 W25G32    29.84R
JAMESTOWN      MOSUNNY   66  40  38 W12       29.83S
MINOT AFB      MOSUNNY   64  36  35 W29       29.81F
GARRISON         N/A     63  37  38 W22G32    29.88S
WILLISTON      PTSUNNY   61  35  37 W23G32    29.91S
DICKINSON      PTSUNNY   63  39  41 NW16      29.96R
HETTINGER      SUNNY     66  37  34 NW20G25   29.99R
$$

 *****  OTHER AIRPORT OBSERVATIONS IN OUR AREA  *****

CITY           SKY/WX    TMP DP  RH WIND       PRES   REMARKS
WALHALLA         N/A     68  41  37 W12G22    29.69F
GRAFTON AIRPOR FAIR      63  45  51 W14G21    29.73R
VALLEY CITY AR FAIR      64  43  45 W12       29.83S
CANDO          FAIR      64  39  39 W21G30    29.79S
CAVALIER APRT  FAIR      68  43  40 SW16      29.70S
GWINNER        SUNNY     64  43  45 W10       29.85F
SHEYENNE NWR     N/A     62  41  46 W7        29.95S
ROLLA          FAIR      63  36  36 W24G31    29.77R
 ***** THE ABOVE OBSERVATIONS ARE NON NWS ARE NOT QUALITY
       CONTROLLED AND MAY MIS-REPORT RAIN FOR SNOW...
$$

  *****  WEATHER ACROSS NORTHERN MINNESOTA  *****

CITY           SKY/WX    TMP DP  RH WIND       PRES   REMARKS
FLAG ISLAND    CLOUDY    54  45  71 SE8       29.66F
WARROAD        CLOUDY    57  46  67 SW7       29.71F
ROSEAU         CLOUDY    61  45  55 SW13      29.71S
HALLOCK          N/A     63  43  48 SW10      29.70F
THF RVR FALLS  MOSUNNY   63  43  48 SW10      29.77R
BAUDETTE       PTSUNNY   62  40  44 SW10      29.72S
WASKISH        PTSUNNY   61  45  55 SW7       29.76R
CROOKSTON      MOSUNNY   61  45  55 SW10      29.78S
STEPHEN NDAWN    N/A     66  45  45 SW9         N/A
GREENBUSH NDAW   N/A     61  43  51 SW13        N/A
$$
  *****  WEATHER ACROSS CENTRAL AND WEST MINNESOTA  *****

CITY           SKY/WX    TMP DP  RH WIND       PRES   REMARKS
FOSSTON        SUNNY     63  45  51 SW12      29.80S
BEMIDJI        MOSUNNY   67  37  32 SW10G16   29.78F
PARK RAPIDS    SUNNY     64  40  41 SW8       29.81F
ELBOW LAKE     FAIR      62  47  58 W6        29.85S
WADENA         SUNNY     63  46  55 W6        29.83S
DETROIT LAKES  SUNNY     63  41  45 SW9       29.83S
MOORHEAD       SUNNY     61  43  51 S7        29.82F
FERGUS FALLS   MOSUNNY   61  43  51 W8        29.85F
MORRIS MN      PTSUNNY   66  52  59 CALM      29.85R
STAPLES        SUNNY     63  46  55 SW6       29.83S
$$
  *****  WEATHER ELSEWHERE ACROSS MINNESOTA  *****

CITY           SKY/WX    TMP DP  RH WIND       PRES   REMARKS
DULUTH         MOSUNNY   61  47  59 SW13      29.83F
INTRNTL FALLS  MOSUNNY   63  42  46 SW9G18    29.73F
ELY            SUNNY     63  46  55 SW13G22   29.78F
CLOQUET        SUNNY     61  46  59 S9        29.82F
WHEATON        PTSUNNY   64  46  52 W5        29.86S
BRAINERD       SUNNY     60  46  59 SW7       29.84S
HIBBING        MOSUNNY   61  46  57 VRB6      29.80F
ALEXANDRIA     MOSUNNY   61  49  64 W6        29.86S
SAINT CLOUD    MOSUNNY   61  48  62 SW5       29.85F
MINNEAPOLIS    PTSUNNY   62  52  69 S8        29.86F
$$

  *****  WEATHER ACROSS SOUTH DAKOTA  *****

CITY           SKY/WX    TMP DP  RH WIND       PRES   REMARKS
SIOUX FALLS    PTSUNNY   65  53  65 NW3       29.91R
BROOKINGS      NOT AVBL
WATERTOWN      PTSUNNY   60  46  59 W5        29.89S
HURON          PTSUNNY   62  42  47 CALM      29.91S
SISSETON         N/A     73  35  25 W6        29.84R
ABERDEEN       MOSUNNY   63  40  42 W6        29.89S
MITCHELL       MOSUNNY   61  42  49 W3        29.92F
PIERRE         PTSUNNY   60  38  43 W6        29.93R
MOBRIDGE       MOSUNNY   58  40  51 S3        29.90R
RAPID CITY     PTSUNNY   68  34  28 N20       30.01R
$$

  *****  SOME WEATHER IN NEARBY STATES *****

CITY           SKY/WX    TMP DP  RH WIND       PRES   REMARKS
GLASGOW MT     PTSUNNY   56  31  38 W20G31    29.96R
GREAT FALLS MT PTSUNNY   54  32  43 SW17      30.05R
CHEYENNE WY    CLOUDY    64  28  25 W13       30.22F
SCOTTSBLUFF NE MOSUNNY   72  32  23 W14       30.09S
OMAHA NE       CLOUDY    68  59  73 SW8       29.93F
DES MOINES IA  CLOUDY    63  60  90 S12       29.95F FOG
DAVENPORT IA   PTSUNNY   58  52  80 S8        30.05F
CHICAGO IL     PTSUNNY   60  48  64 S5        30.04F
EAU CLAIRE WI  MOSUNNY   56  49  77 SE10      29.92F
LA CROSSE WI   PTSUNNY   59  53  80 S9        29.96F
$$

  *****  SOME NATIONAL WEATHER *****

CITY           SKY/WX    TMP DP  RH WIND       PRES   REMARKS
LA GUARDIA NY  PTSUNNY   58  43  57 NW18G24   29.78F
RALEIGH NC     MOSUNNY   67  43  41 CALM      30.03F
ATLANTA GA     PTSUNNY   68  47  46 W8        30.07S
NEW ORLEANS LA MOSUNNY   71  50  47 N9        30.11F
OKLAHOMA CITY  PTSUNNY   74  60  61 S13       30.12F
ALBUQUERQUE NM SUNNY     64  33  31 N3        30.36S
SALT LAKE CITY SUNNY     64  38  38 CALM      30.18R
LOS ANGELES CA MOSUNNY   72  52  49 SE6       29.99S
BOISE ID       CLOUDY    54  49  83 CALM      30.11S
SEATTLE WA     CLOUDY    51  44  77 SE6       30.05S
$$

*** WEATHER ACROSS MANITOBA...SASKATCHEWAN AND ONTARIO ***
                ***ONTARIO***

CITY           SKY/WX    TMP DP  RH WIND       PRES   REMARKS
GERALDTON      CLOUDY    48  46  93 SW15      29.78F FOG
THUNDER BAY    PTSUNNY   54  48  82 CALM      29.79F
SIOUX LOOKOUT  PTSUNNY   57  45  62 SW8       29.67F
TORONTO        MOSUNNY   54  37  54 W8        30.01F
BIG TROUT LK   PTSUNNY   52  45  76 S8        29.56F
PICKLE LAKE    PTSUNNY   54  45  71 S10       29.63F
DRYDEN         PTSUNNY   59  43  55 SW12G17   29.66F
KENORA         PTSUNNY   55  43  62 S12       29.68F
$$
                *** MANITOBA***

CITY           SKY/WX    TMP DP  RH WIND       PRES   REMARKS
BRANDON        PTSUNNY   63  43  48 W22G32    29.67F
DAUPHIN        SUNNY     64  39  39 W26G38    29.56F
ISLAND LAKE    PTSUNNY   50  46  87 SE8       29.47F
PILOT MOUND      N/A     64  39  39 W14G25      N/A
THE PAS        CLOUDY   N/A N/A N/A W8          N/A
THOMPSON       LGT RAIN  41  41 100 S5        29.43F VSB 3/4
WINNIPEG       PTSUNNY   55  43  62 SW13G21   29.64F
LYNN LAKE      CLOUDY    39  39 100 S6        29.36F
CHURCHILL      LGT RAIN  37  37 100 SE21G30   29.48F FOG
GILLAM         CLOUDY    41  41 100 S2        29.46F
$$
                ***SASKATCHEWAN***

CITY           SKY/WX    TMP DP  RH WIND       PRES   REMARKS
ESTEVAN        PTSUNNY   59  34  38 W24G37    29.81S
KINDERSLEY     MOSUNNY   45  32  61 W20G28    29.85R
LLOYDMINSTER   MOSUNNY   41  32  70 W20G30    29.77R
PRINCE ALBERT  CLOUDY    45  34  65 W20G31    29.64R
REGINA         PTSUNNY   54  36  50 W21G30    29.80R
YORKTON        PTSUNNY   54  36  50 NW26G38   29.66R
N. BATTLEFORD  SUNNY     45  32  61 NW20G33   29.77R
LA RONGE       CLOUDY    41  34  75 W21G31    29.51R
SASKATOON      MOSUNNY   48  32  53 NW23G31   29.75R
SWIFT CURRENT  SUNNY     48  32  53 W15       29.88R
$$
NOTE: THESE ARE AUTOMATED STATIONS WITH LIMITED QUALITY CONTROL
      "FAIR" INDICATES FEW OR NO CLOUDS BELOW 12,000 FEET WITH NO
      SIGNIFICANT WEATHER AND/OR OBSTRUCTIONS TO VISIBILITY.
      SKY/WX - SKY CONDITION AND SIGNIFICANT WEATHER.
      TMP - AIR TEMPERATURE.    DP   - DEWPOINT TEMPERATURE.
      RH  - RELATIVE HUMIDITY.  PRES - PRESSURE.
      HX  - HEAT INDEX.         WCI  - WIND CHILL INDEX.
$



USA.gov is the U.S. government's official web portal to all federal, state and local government web resources and services.